Weather History for KMQS - May, 2014

Change the Weather History Date:

Friday, May 16, 2014

  Actual Average Record
Temperature  
Mean Temperature 60 °F -  
Max Temperature 66 °F - - ()
Min Temperature 53 °F - - ()
Degree Days  
Heating Degree Days 6    
Growing Degree Days 10 (Base 50)    
Moisture  
Dew Point 60 °F    
Average Humidity 94    
Maximum Humidity 100    
Minimum Humidity 73    
Precipitation  
Precipitation 0.97 in - - ()
Sea Level Pressure  
Sea Level Pressure 29.88 in    
Wind  
Wind Speed 11 mph (West)    
Max Wind Speed 17 mph    
Max Gust Speed 26 mph    
Visibility 8 miles    
Events Rain    
T = Trace of Precipitation, MM = Missing Value Source: NWS Daily Summary

Daily Weather History Graph

Daily Weather History Graph

Search for Another Location

Airport or City:

Trip Planner

Search our weather history database for the weather conditions in past years. The results will help you decide how hot, cold, wet, or windy it might be!

Date:

Astronomy

May. 16, 2014 Rise Set
Actual Time 5:47 AM EDT 8:12 PM EDT
Civil Twilight 5:16 AM EDT 8:43 PM EDT
Nautical Twilight 4:38 AM EDT 9:21 PM EDT
Astronomical Twilight 3:56 AM EDT 10:04 PM EDT
Moon 10:17 PM EDT (5/16) 7:26 AM EDT (5/16)
Length of Visible Light 15h 26m
Length of Day
14h 25m
Waning Gibbous, 95% of the Moon is Illuminated
May 16
Waning Gibbous
May 21
Last Quarter
May 28
New
Jun 5
First Quarter
Jun 13
Full

Hourly Weather History & Observations

Time (EDT) Temp. Dew Point Humidity Pressure Visibility Wind Dir Wind Speed Gust Speed Precip Events Conditions
12:15 AM 66.2 °F 66.2 °F 100% 30.00 in 10.0 mi SE 11.5 mph 20.7 mph N/A   Overcast
12:35 AM 66.2 °F 66.2 °F 100% 30.00 in 10.0 mi SSE 11.5 mph 17.3 mph N/A   Overcast
12:55 AM 66.2 °F 66.2 °F 100% 29.99 in 10.0 mi SSE 12.7 mph 24.2 mph N/A   Overcast
1:15 AM 66.2 °F 66.2 °F 100% 29.98 in 10.0 mi SSE 12.7 mph 18.4 mph N/A   Overcast
1:35 AM 66.2 °F 66.2 °F 100% 29.97 in 10.0 mi SE 12.7 mph 19.6 mph N/A   Overcast
2:15 AM 66.2 °F 66.2 °F 100% 29.96 in 10.0 mi SE 10.4 mph 18.4 mph N/A   Overcast
2:35 AM 66.2 °F 66.2 °F 100% 29.94 in 10.0 mi SE 11.5 mph 18.4 mph N/A   Overcast
2:55 AM 66.2 °F 66.2 °F 100% 29.93 in 10.0 mi SE 9.2 mph 17.3 mph N/A   Overcast
3:15 AM 66.2 °F 66.2 °F 100% 29.92 in 10.0 mi SE 11.5 mph 16.1 mph N/A   Overcast
3:35 AM 66.2 °F 66.2 °F 100% 29.91 in 10.0 mi SSE 12.7 mph 25.3 mph N/A   Overcast
3:55 AM 66.2 °F 66.2 °F 100% 29.90 in 10.0 mi SE 13.8 mph 21.9 mph N/A   Overcast
4:15 AM 66.2 °F 66.2 °F 100% 29.89 in 10.0 mi SE 11.5 mph 21.9 mph N/A   Overcast
4:35 AM 66.2 °F 66.2 °F 100% 29.87 in 9.0 mi SE 15.0 mph 20.7 mph N/A Rain Light Rain
4:55 AM 66.2 °F 66.2 °F 100% 29.86 in 8.0 mi SE 13.8 mph 25.3 mph N/A Rain Light Rain
5:15 AM 66.2 °F 66.2 °F 100% 29.85 in 10.0 mi SSE 12.7 mph 25.3 mph N/A Rain Light Rain
5:35 AM 66.2 °F 66.2 °F 100% 29.85 in 10.0 mi SE 12.7 mph 23.0 mph N/A Rain Light Rain
5:55 AM 66.2 °F 66.2 °F 100% 29.84 in 9.0 mi SE 13.8 mph 24.2 mph N/A   Overcast
6:15 AM 66.2 °F 66.2 °F 100% 29.84 in 5.0 mi SE 12.7 mph 26.5 mph N/A Rain Light Rain
6:35 AM 66.2 °F 66.2 °F 100% 29.84 in 6.0 mi SSE 13.8 mph 25.3 mph 0.01 in Rain Light Rain
6:55 AM 66.2 °F 66.2 °F 100% 29.84 in 4.0 mi SE 12.7 mph 26.5 mph 0.02 in Rain Light Rain
7:15 AM 66.2 °F 66.2 °F 100% 29.83 in 3.0 mi SE 13.8 mph 25.3 mph 0.01 in Rain Light Rain
7:35 AM 66.2 °F 66.2 °F 100% 29.84 in 3.0 mi SSE 12.7 mph 25.3 mph 0.01 in Rain Light Rain
7:55 AM 66.2 °F 66.2 °F 100% 29.83 in 2.5 mi SE 12.7 mph 25.3 mph 0.02 in Rain Light Rain
8:15 AM 64.4 °F 64.4 °F 100% 29.84 in 2.5 mi SSE 11.5 mph 24.2 mph 0.02 in Rain Light Rain
8:35 AM 64.4 °F 64.4 °F 100% 29.84 in 2.5 mi SSE 10.4 mph 20.7 mph 0.04 in Rain Light Rain
8:55 AM 64.4 °F 64.4 °F 100% 29.85 in 3.0 mi SE 12.7 mph 19.6 mph 0.06 in Rain Light Rain
9:15 AM 64.4 °F 64.4 °F 100% 29.85 in 2.5 mi SSE 9.2 mph - 0.02 in Rain Light Rain
9:35 AM 66.2 °F 66.2 °F 100% 29.85 in 3.0 mi SSE 10.4 mph 16.1 mph 0.05 in Rain Light Rain
9:55 AM 64.4 °F 64.4 °F 100% 29.87 in 2.5 mi West 13.8 mph 19.6 mph 0.08 in Rain Light Rain
10:15 AM 55.4 °F 55.4 °F 100% 29.86 in 1.8 mi WNW 17.3 mph 20.7 mph 0.08 in Rain Heavy Rain
10:35 AM 55.4 °F 55.4 °F 100% 29.87 in 2.0 mi WNW 11.5 mph - 0.21 in Rain Heavy Rain
10:55 AM 55.4 °F 55.4 °F 100% 29.85 in 1.8 mi NNW 8.1 mph - 0.36 in Rain Heavy Rain
11:15 AM 55.4 °F 55.4 °F 100% 29.85 in 3.0 mi WNW 12.7 mph - 0.04 in Rain Rain
11:35 AM 55.4 °F 55.4 °F 100% 29.86 in 2.0 mi WNW 11.5 mph - 0.12 in Rain Heavy Rain
11:55 AM 55.4 °F 55.4 °F 100% 29.84 in 1.2 mi NW 8.1 mph - 0.23 in Rain Heavy Rain
12:15 PM 55.4 °F 55.4 °F 100% 29.85 in 1.2 mi NW 11.5 mph - 0.10 in Rain Heavy Rain
12:35 PM 55.4 °F 55.4 °F 100% 29.84 in 1.2 mi NW 11.5 mph - 0.17 in Rain Heavy Rain
12:55 PM 55.4 °F 55.4 °F 100% 29.85 in 1.5 mi NW 10.4 mph - 0.19 in Rain Rain
1:15 PM 55.4 °F 55.4 °F 100% 29.85 in 2.0 mi NW 12.7 mph - 0.01 in Rain Light Rain
1:35 PM 57.2 °F 57.2 °F 100% 29.85 in 10.0 mi WNW 11.5 mph - 0.01 in   Overcast
1:55 PM 57.2 °F 57.2 °F 100% 29.85 in 8.0 mi NW 9.2 mph - 0.01 in Rain Light Rain
2:15 PM 59.0 °F 59.0 °F 100% 29.85 in 10.0 mi NNW 10.4 mph - N/A   Overcast
2:35 PM 59.0 °F 59.0 °F 100% 29.85 in 10.0 mi NW 10.4 mph - N/A   Overcast
2:55 PM 59.0 °F 59.0 °F 100% 29.84 in 10.0 mi NW 11.5 mph - N/A   Overcast
3:15 PM 59.0 °F 59.0 °F 100% 29.85 in 10.0 mi WNW 6.9 mph - N/A   Overcast
3:35 PM 60.8 °F 59.0 °F 94% 29.84 in 10.0 mi NW 9.2 mph - N/A   Mostly Cloudy
3:55 PM 60.8 °F 57.2 °F 88% 29.84 in 10.0 mi NNW 8.1 mph - N/A   Mostly Cloudy
4:15 PM 62.6 °F 59.0 °F 88% 29.84 in 10.0 mi NW 8.1 mph - N/A   Mostly Cloudy
4:35 PM 62.6 °F 57.2 °F 82% 29.84 in 10.0 mi NNW 10.4 mph - N/A   Mostly Cloudy
4:55 PM 62.6 °F 57.2 °F 82% 29.84 in 10.0 mi NW 10.4 mph - N/A   Mostly Cloudy
5:15 PM 62.6 °F 57.2 °F 82% 29.84 in 10.0 mi WNW 10.4 mph - N/A   Mostly Cloudy
5:35 PM 64.4 °F 57.2 °F 77% 29.84 in 10.0 mi WNW 10.4 mph - N/A   Mostly Cloudy
5:55 PM 64.4 °F 55.4 °F 73% 29.85 in 10.0 mi NW 8.1 mph - N/A   Mostly Cloudy
6:15 PM 64.4 °F 57.2 °F 77% 29.86 in 10.0 mi WNW 10.4 mph - N/A   Mostly Cloudy
6:35 PM 64.4 °F 57.2 °F 77% 29.86 in 10.0 mi WNW 6.9 mph - N/A   Overcast
6:55 PM 64.4 °F 55.4 °F 73% 29.86 in 10.0 mi NW 6.9 mph - N/A   Overcast
7:15 PM 64.4 °F 55.4 °F 73% 29.86 in 10.0 mi NW 6.9 mph - N/A   Scattered Clouds
7:35 PM 62.6 °F 57.2 °F 82% 29.87 in 10.0 mi West 3.5 mph - N/A   Partly Cloudy
7:55 PM 62.6 °F 57.2 °F 82% 29.88 in 10.0 mi Calm Calm - N/A   Clear
8:15 PM 59.0 °F 55.4 °F 88% 29.88 in 10.0 mi WNW 5.8 mph - N/A   Clear
8:35 PM 57.2 °F 55.4 °F 94% 29.88 in 10.0 mi WNW 4.6 mph - N/A   Clear
8:55 PM 57.2 °F 55.4 °F 94% 29.89 in 10.0 mi NW 5.8 mph - N/A   Mostly Cloudy
9:15 PM 57.2 °F 53.6 °F 88% 29.90 in 10.0 mi NW 9.2 mph - N/A   Scattered Clouds
9:35 PM 57.2 °F 55.4 °F 94% 29.91 in 10.0 mi NW 9.2 mph - N/A   Clear
9:55 PM 57.2 °F 53.6 °F 88% 29.92 in 10.0 mi NW 9.2 mph - N/A   Clear
10:15 PM 57.2 °F 51.8 °F 82% 29.92 in 10.0 mi NW 9.2 mph - N/A   Clear
10:35 PM 57.2 °F 51.8 °F 82% 29.92 in 10.0 mi NW 9.2 mph - N/A   Clear
10:55 PM 55.4 °F 51.8 °F 88% 29.92 in 10.0 mi NW 9.2 mph - N/A   Clear
11:15 PM 55.4 °F 50.0 °F 82% 29.92 in 10.0 mi NW 8.1 mph - N/A   Clear
11:35 PM 53.6 °F 50.0 °F 88% 29.92 in 10.0 mi WNW 10.4 mph - N/A   Clear
11:55 PM 53.6 °F 48.2 °F 82% 29.93 in 10.0 mi WNW 10.4 mph - N/A   Clear